Location: Anaheim
(33.8350°N, 117.9140°W)
Time: 10:52:44
(UTC-07:00)

Amateur Radio Satellites - All Passes

Search period start: 01 April 2015 10:22
Search period end: 02 April 2015 10:22
Location: Anaheim, 33.8350°N, 117.9140°W

Satellite Date Start Highest point End Downlink Frequencies (MHz)
Time Altitude Azimuth
FUNcube-1 01 Apr 10:24:50 10:28:55 35° 97° (E) 10:33:05 145.935
CANX-2 01 Apr 10:29:04 10:32:28 22° 289° (WNW) 10:35:45 2200.000
BUGSAT 1 01 Apr 10:30:57 10:33:39 18° 71° (ENE) 10:36:28 437.445
HO-68 01 Apr 10:32:32 10:39:20 45° 291° (WNW) 10:46:02 435.675
GOMX 1 01 Apr 10:34:53 10:38:03 19° 288° (WNW) 10:41:12 467.674
UWE-3 01 Apr 10:37:31 10:41:59 66° 101° (E) 10:46:33 435.000/436.395/437.385
ZACube-1 01 Apr 10:38:48 10:43:09 54° 100° (E) 10:47:36 437.345
CUTE 1.7 + AOD 2 01 Apr 10:42:55 10:45:51 17° 290° (WNW) 10:48:37 437.475
ANTELSAT 01 Apr 10:45:39 10:49:55 83° 78° (ENE) 10:54:15 437.575/2403.000
POPSAT HIP 1 01 Apr 10:48:01 10:51:57 41° 74° (ENE) 10:55:56 437.405
VELOX 1 01 Apr 10:48:13 10:51:13 19° 94° (E) 10:54:23 145.980
CUBEBUG 2 01 Apr 10:49:28 10:53:59 73° 283° (WNW) 10:58:35 437.445
BEESAT 3 01 Apr 10:50:26 10:52:31 13° 312° (NW) 10:54:28 437.485
AISAT 01 Apr 10:54:01 10:57:27 23° 95° (E) 11:00:59 437.250
AAUSAT CUBESAT 2 01 Apr 10:54:24 10:57:39 21° 289° (WNW) 11:00:46 437.432
NANOSAT C BR1 01 Apr 10:57:02 11:01:08 53° 75° (ENE) 11:05:14 145.865
CINEMA 3 01 Apr 11:00:01 11:03:58 29° 287° (WNW) 11:07:58 145.822/145.860
HUMSAT D 01 Apr 11:03:37 11:07:47 49° 99° (E) 11:11:59 437.325/437.525
PHONESAT 2.4 01 Apr 11:04:13 11:07:25 33° 213° (SSW) 11:10:38 2401.200-2431.200
POLYITAN 1 01 Apr 11:04:15 11:08:25 68° 76° (ENE) 11:12:36 437.675
SEEDS 01 Apr 11:08:47 11:10:02 11° 292° (WNW) 11:11:01 437.485
50 SAT 01 Apr 11:11:53 11:15:39 37° 98° (E) 11:19:27 437.505
UKube-1 01 Apr 11:15:20 11:19:41 84° 282° (WNW) 11:23:59 .
DX 1 01 Apr 11:30:08 11:34:21 52° 286° (WNW) 11:38:33 434.975-435.025
ESTCUBE 1 01 Apr 11:34:20 11:38:22 32° 97° (E) 11:42:25 437.505/2401.250
JUGNU 01 Apr 11:34:29 11:36:25 12° 165° (SSE) 11:38:28 437.505
DUCHIFAT 1 01 Apr 11:39:30 11:43:31 44° 261° (W) 11:47:33 145.980
QB50P1 01 Apr 11:39:39 11:43:40 43° 261° (W) 11:47:41 145.935-145.965
UNISAT 6 01 Apr 11:42:50 11:46:05 20° 266° (W) 11:49:14 437.425
Oscar 11 01 Apr 11:45:37 11:47:49 13° 292° (WNW) 11:49:48 145.826/435.025
AIST 2 01 Apr 11:49:03 11:50:55 12° 313° (NW) 11:52:37 435.215
DELFI C3 01 Apr 11:49:38 11:51:46 14° 291° (WNW) 11:53:42 145.870
TIGRISAT 01 Apr 11:52:01 11:54:49 16° 268° (W) 11:57:28 435.000
QB50P2 01 Apr 11:56:12 11:59:49 27° 264° (W) 12:03:22 145.880/145.840
FUNcube-1 01 Apr 12:02:01 12:05:02 17° 290° (WNW) 12:07:54 145.935
BUGSAT 1 01 Apr 12:05:16 12:08:57 29° 263° (W) 12:12:34 437.445
SPROUT 01 Apr 12:10:43 12:13:31 17° 93° (E) 12:16:27 437.525
CUBEBUG 1 01 Apr 12:13:39 12:17:59 87° 102° (ESE) 12:22:18 437.445
ZACube-1 01 Apr 12:17:21 12:19:09 12° 292° (WNW) 12:20:43 437.345
Oscar 19 01 Apr 12:23:04 12:25:38 15° 66° (ENE) 12:28:29 437.125/150
VELOX 1 01 Apr 12:23:59 12:27:53 31° 288° (WNW) 12:31:43 145.980
POPSAT HIP 1 01 Apr 12:26:06 12:28:05 13° 269° (W) 12:29:51 437.405
AISAT 01 Apr 12:30:21 12:34:02 26° 289° (WNW) 12:37:37 437.250
HUMSAT D 01 Apr 12:41:27 12:43:11 12° 291° (WNW) 12:44:42 437.325/437.525
50 SAT 01 Apr 12:48:09 12:50:16 14° 290° (WNW) 12:52:12 437.505
O/OREOS (USA 219) 01 Apr 13:08:04 13:11:56 27° 63° (ENE) 13:15:49 437.305
ESTCUBE 1 01 Apr 13:11:48 13:15:03 19° 290° (WNW) 13:18:08 437.505/2401.250
JUGNU 01 Apr 13:20:41 13:24:47 19° 174° (S) 13:28:55 437.505
TISAT 1 01 Apr 13:22:28 13:26:40 73° 284° (WNW) 13:30:50 437.305
ITUPSAT 1 01 Apr 13:22:53 13:25:08 14° 91° (E) 13:27:38 437.325
YUBILEINY 01 Apr 13:32:48 13:41:31 72° 94° (E) 13:50:19 435.215
ITAMSAT 1 01 Apr 13:34:32 13:38:34 24° 69° (ENE) 13:42:43 435.822/435.867
SPROUT 01 Apr 13:45:53 13:49:42 31° 287° (WNW) 13:53:27 437.525
PCSat 01 Apr 13:46:04 13:51:19 56° 112° (ESE) 13:56:39 145.827
Oscar 19 01 Apr 13:59:33 14:04:35 57° 260° (W) 14:09:37 437.125/150
SWISSCUBE 01 Apr 14:07:14 14:11:52 49° 99° (E) 14:16:29 437.505
BEESAT 01 Apr 14:09:36 14:14:12 48° 99° (E) 14:18:48 436.000
AIST 1 01 Apr 14:18:44 14:21:10 15° 73° (ENE) 14:23:47
SRMSAT 01 Apr 14:26:44 14:30:32 17° 171° (S) 14:34:23 437.500
HORYU 2 01 Apr 14:32:55 14:34:47 13° 68° (ENE) 14:36:53 437.375
Gurwin Techsat 1B 01 Apr 14:42:19 14:47:38 89° 86° (E) 14:52:59 435.225
JAS-2 01 Apr 14:44:16 14:47:56 15° 60° (ENE) 14:52:12 435.910
O/OREOS (USA 219) 01 Apr 14:47:42 14:51:14 22° 258° (WSW) 14:54:36 437.305
ITUPSAT 1 01 Apr 14:58:44 15:03:22 49° 286° (WNW) 15:07:57 437.325
KKS-1 01 Apr 14:58:57 15:02:43 27° 96° (E) 15:06:34 437.445
JUGNU 01 Apr 15:08:54 15:13:11 20° 184° (S) 15:17:27 437.505
ITAMSAT 1 01 Apr 15:13:08 15:17:54 35° 263° (W) 15:22:37 435.822/435.867
STARS 01 Apr 15:22:32 15:26:27 31° 97° (E) 15:30:25 437.465
AO-7 01 Apr 15:27:59 15:35:49 49° 67° (ENE) 15:43:43 29.400- 29.500
PCSat 01 Apr 15:31:24 15:35:11 18° 310° (NW) 15:38:47 145.827
YUBILEINY 01 Apr 15:32:50 15:39:18 21° 293° (WNW) 15:45:20 435.215
SWISSCUBE 01 Apr 15:46:40 15:49:22 15° 293° (WNW) 15:51:51 437.505
BEESAT 01 Apr 15:48:53 15:51:42 15° 293° (WNW) 15:54:17 436.000
AIST 1 01 Apr 15:55:08 15:59:00 33° 268° (W) 16:02:47
HORYU 2 01 Apr 16:06:47 16:11:04 49° 261° (W) 16:15:23 437.375
SRMSAT 01 Apr 16:14:44 16:19:05 21° 181° (S) 16:23:25 437.500
JAS-2 01 Apr 16:25:01 16:31:54 88° 79° (E) 16:39:36 435.910
KKS-1 01 Apr 16:35:47 16:39:15 22° 290° (WNW) 16:42:37 437.445
JUGNU 01 Apr 16:58:35 17:01:34 14° 193° (SSW) 17:04:27 437.505
MOZHAYETS 4 01 Apr 16:59:13 17:03:22 32° 97° (E) 17:07:31
STARS 01 Apr 16:59:34 17:02:43 19° 290° (WNW) 17:05:45 437.465
RS-15 01 Apr 17:02:37 17:10:12 24° 105° (ESE) 17:18:24 29.354- 29.394
AO-7 01 Apr 17:21:33 17:28:50 32° 263° (W) 17:35:55 29.400- 29.500
SO-50 01 Apr 17:29:04 17:33:12 36° 113° (ESE) 17:37:31 436.795
BEESAT 3 01 Apr 17:34:54 17:36:06 11° 46° (NE) 17:37:30 437.485
AUBIESAT-1 01 Apr 17:54:14 17:58:29 32° 100° (E) 18:02:35 437.475
GONETS M04 01 Apr 17:54:41 17:59:57 19° 83° (E) 18:05:45
CUTE-I 01 Apr 18:00:19 18:05:25 47° 73° (ENE) 18:10:33 437.470
Cubesat XI-IV 01 Apr 18:01:35 18:06:43 49° 73° (ENE) 18:11:53 437.490
SRMSAT 01 Apr 18:04:02 18:07:38 16° 191° (S) 18:11:09 437.500
JAS-2 01 Apr 18:14:41 18:18:11 13° 276° (W) 18:21:13 435.910
M-CUBED/EXP-1 PRIME 01 Apr 18:21:27 18:26:18 75° 107° (ESE) 18:30:55 437.505
AIST 2 01 Apr 18:34:31 18:36:48 14° 48° (NE) 18:39:14 435.215
MOZHAYETS 4 01 Apr 18:36:57 18:40:24 20° 290° (WNW) 18:43:42
BEESAT 2 01 Apr 18:37:59 18:41:56 43° 57° (ENE) 18:45:49 435.950
CUBESAT XI-V 01 Apr 18:56:20 19:00:43 43° 98° (E) 19:05:07 437.345
SO-50 01 Apr 19:10:11 19:13:52 22° 310° (NW) 19:17:32 436.795
BEESAT 3 01 Apr 19:10:34 19:14:38 62° 244° (WSW) 19:18:35 437.485
RS-15 01 Apr 19:10:43 19:21:37 75° 300° (WNW) 19:32:42 29.354- 29.394
HO-68 01 Apr 19:12:30 19:16:03 15° 60° (ENE) 19:20:02 435.675
AUBIESAT-1 01 Apr 19:29:16 19:33:05 24° 295° (WNW) 19:36:42 437.475
STRAND 1 01 Apr 19:34:15 19:39:16 56° 101° (E) 19:44:15 437.568
BRITE-PL 01 Apr 19:34:18 19:37:17 18° 72° (ENE) 19:40:19 437.365/2234.400
CUTE-I 01 Apr 19:42:06 19:45:47 18° 268° (W) 19:49:14 437.470
Cubesat XI-IV 01 Apr 19:43:34 19:47:08 17° 268° (W) 19:50:27 437.490
CANX-2 01 Apr 19:44:29 19:45:52 12° 68° (ENE) 19:47:30 2200.000
GONETS M04 01 Apr 19:47:19 19:56:01 74° 279° (W) 20:04:46
PRISM 01 Apr 19:47:40 19:51:46 57° 285° (WNW) 19:55:47 437.425
CUTE 1.7 + AOD 2 01 Apr 19:56:49 19:59:10 15° 69° (ENE) 20:01:42 437.475
M-CUBED/EXP-1 PRIME 01 Apr 19:58:59 20:00:34 11° 299° (WNW) 20:01:50 437.505
GOMX 1 01 Apr 20:01:38 20:04:57 22° 72° (ENE) 20:08:17 467.674
AAUSAT CUBESAT 2 01 Apr 20:08:10 20:09:18 11° 68° (ENE) 20:10:42 437.432
DANDE 01 Apr 20:09:01 20:10:30 13° 96° (E) 20:12:00 436.750
AIST 2 01 Apr 20:11:38 20:15:44 48° 245° (WSW) 20:19:43 435.215
BEESAT 2 01 Apr 20:17:49 20:19:44 13° 251° (WSW) 20:21:25 435.950
SEEDS 01 Apr 20:19:27 20:22:44 23° 71° (ENE) 20:26:06 437.485
CINEMA 3 01 Apr 20:23:57 20:25:10 11° 69° (ENE) 20:26:38 145.822/145.860
ISS 01 Apr 20:30:56 20:33:46 28° 131° (SE) 20:36:39 145.825
CUBESAT XI-V 01 Apr 20:35:08 20:37:51 15° 292° (WNW) 20:40:22 437.345
COMPASS 1 01 Apr 20:35:47 20:39:21 29° 73° (ENE) 20:43:02 437.405
CUSAT 1 01 Apr 20:37:47 20:40:37 70° 98° (E) 20:43:12 437.405
HO-68 01 Apr 20:55:49 21:02:59 89° 254° (WSW) 21:10:13 435.675
DELFI C3 01 Apr 20:58:29 21:00:44 15° 70° (ENE) 21:03:10 145.870
Oscar 11 01 Apr 20:59:30 21:02:45 22° 71° (ENE) 21:06:09 145.826/435.025
DOVE 4 01 Apr 21:09:05 21:13:25 89° 257° (WSW) 21:17:37 437.250
BRITE-PL 01 Apr 21:11:24 21:15:41 34° 262° (W) 21:19:41 437.365/2234.400
STRAND 1 01 Apr 21:15:11 21:18:03 15° 294° (WNW) 21:20:40 437.568
CANX-2 01 Apr 21:17:19 21:21:25 48° 261° (W) 21:25:34 2200.000
FUNcube-1 01 Apr 21:18:22 21:20:56 17° 70° (ENE) 21:23:40 145.935
RS-15 01 Apr 21:28:32 21:36:25 21° 327° (NNW) 21:44:01 29.354- 29.394
CUTE 1.7 + AOD 2 01 Apr 21:30:53 21:34:49 37° 263° (W) 21:38:46 437.475
UWE-3 01 Apr 21:31:38 21:35:15 31° 73° (ENE) 21:38:57 435.000/436.395/437.385
ZACube-1 01 Apr 21:31:55 21:35:15 25° 72° (ENE) 21:38:42 437.345
GOMX 1 01 Apr 21:39:18 21:43:03 25° 264° (W) 21:46:34 467.674
AAUSAT CUBESAT 2 01 Apr 21:40:30 21:44:33 49° 261° (W) 21:48:38 437.432
VELOX 1 01 Apr 21:44:16 21:45:27 11° 67° (ENE) 21:46:55 145.980
CUBEBUG 2 01 Apr 21:44:17 21:48:19 56° 76° (ENE) 21:52:25 437.445
AISAT 01 Apr 21:49:40 21:51:47 14° 68° (ENE) 21:54:07 437.250
GONETS M04 01 Apr 21:52:01 21:54:45 11° 300° (WNW) 21:56:39
HUMSAT D 01 Apr 21:52:45 21:55:44 21° 71° (ENE) 21:58:53 437.325/437.525
SEEDS 01 Apr 21:55:03 21:58:28 23° 265° (W) 22:01:48 437.485
50 SAT 01 Apr 21:55:56 21:57:47 13° 70° (ENE) 21:59:50 437.505
CINEMA 3 01 Apr 21:58:02 22:02:04 46° 261° (W) 22:06:04 145.822/145.860
UKube-1 01 Apr 22:06:22 22:10:32 48° 74° (ENE) 22:14:44 .
ISS 01 Apr 22:07:33 22:10:11 22° 325° (NW) 22:12:48 145.825
COMPASS 1 01 Apr 22:12:09 22:15:07 18° 267° (W) 22:17:57 437.405
DX 1 01 Apr 22:21:34 22:25:56 80° 75° (ENE) 22:30:18 434.975-435.025
ESTCUBE 1 01 Apr 22:30:58 22:34:12 20° 70° (ENE) 22:37:34 437.505/2401.250
DELFI C3 01 Apr 22:31:56 22:35:39 34° 263° (W) 22:39:22 145.870
Oscar 11 01 Apr 22:35:13 22:38:50 25° 265° (W) 22:42:25 145.826/435.025
PCSat 01 Apr 22:38:37 22:42:37 21° 52° (NE) 22:46:45 145.827
ANTELSAT 01 Apr 22:41:53 22:45:37 24° 95° (E) 22:49:30 437.575/2403.000
NANOSAT C BR1 01 Apr 22:48:08 22:49:31 12° 91° (E) 22:51:10 145.865
HO-68 01 Apr 22:48:55 22:51:46 12° 272° (W) 22:53:58 435.675
FUNcube-1 01 Apr 22:53:24 22:57:05 30° 263° (W) 23:00:45 145.935
POLYITAN 1 01 Apr 22:55:03 22:57:27 15° 92° (E) 23:00:03 437.675
CUBEBUG 1 01 Apr 23:05:58 23:10:08 43° 74° (ENE) 23:14:19 437.445
ZACube-1 01 Apr 23:08:30 23:11:38 20° 266° (W) 23:14:41 437.345
UWE-3 01 Apr 23:09:16 23:11:55 16° 267° (W) 23:14:25 435.000/436.395/437.385
VELOX 1 01 Apr 23:17:14 23:21:36 56° 260° (W) 23:25:58 145.980
AISAT 01 Apr 23:23:47 23:28:03 45° 261° (W) 23:32:19 437.250
HUMSAT D 01 Apr 23:28:03 23:31:25 24° 265° (W) 23:34:45 437.325/437.525
DUCHIFAT 1 01 Apr 23:28:12 23:32:06 37° 98° (E) 23:36:03 145.980
QB50P1 01 Apr 23:28:38 23:32:35 38° 98° (E) 23:36:34 145.935-145.965
50 SAT 01 Apr 23:28:50 23:32:25 34° 262° (W) 23:36:01 437.505
UNISAT 6 01 Apr 23:37:02 23:41:41 78° 283° (WNW) 23:46:22 437.425
QB50P2 01 Apr 23:44:41 23:48:54 64° 101° (E) 23:53:07 145.880/145.840
UKube-1 01 Apr 23:45:27 23:47:01 11° 269° (W) 23:48:18 .
TIGRISAT 01 Apr 23:45:28 23:50:03 64° 284° (WNW) 23:54:41 435.000
YUBILEINY 01 Apr 23:48:47 23:55:58 29° 71° (ENE) 00:03:24 435.215
BUGSAT 1 01 Apr 23:50:57 23:54:51 49° 100° (E) 23:58:47 437.445
RS-15 01 Apr 23:53:52 23:55:19 10° 3° (N) 23:56:52 29.354- 29.394
ESTCUBE 1 02 Apr 00:06:49 00:10:54 32° 263° (W) 00:14:56 437.505/2401.250
TISAT 1 02 Apr 00:10:51 00:14:54 48° 75° (ENE) 00:18:58 437.305
POPSAT HIP 1 02 Apr 00:12:36 00:16:46 58° 284° (WNW) 00:20:56 437.405
ANTELSAT 02 Apr 00:18:26 00:22:22 27° 288° (WNW) 00:26:16 437.575/2403.000
PCSat 02 Apr 00:21:08 00:26:20 47° 249° (WSW) 00:31:28 145.827
NANOSAT C BR1 02 Apr 00:21:37 00:25:40 45° 286° (WNW) 00:29:42 145.865
ITUPSAT 1 02 Apr 00:27:34 00:28:46 11° 66° (ENE) 00:30:17 437.325
POLYITAN 1 02 Apr 00:29:38 00:33:32 35° 287° (WNW) 00:37:25 437.675
SPROUT 02 Apr 00:35:36 00:39:52 68° 259° (W) 00:44:08 437.525
CUBEBUG 1 02 Apr 00:44:32 00:46:46 13° 269° (W) 00:48:45 437.445
DUCHIFAT 1 02 Apr 01:05:11 01:07:40 15° 291° (WNW) 01:10:00 145.980
QB50P1 02 Apr 01:05:47 01:08:11 15° 291° (WNW) 01:10:25 145.935-145.965
SWISSCUBE 02 Apr 01:10:08 01:14:30 37° 72° (ENE) 01:18:56 437.505
BEESAT 02 Apr 01:12:26 01:16:45 35° 72° (ENE) 01:21:08 436.000
BUGSAT 1 02 Apr 01:29:10 01:29:59 10° 292° (WNW) 01:30:32 437.445
YUBILEINY 02 Apr 01:44:46 01:53:15 53° 269° (W) 02:01:35 435.215
TISAT 1 02 Apr 01:49:54 01:51:02 11° 269° (W) 01:51:52 437.305
ITAMSAT 1 02 Apr 01:53:49 01:54:28 10° 89° (E) 01:55:32 435.822/435.867
KKS-1 02 Apr 01:54:32 01:57:12 16° 69° (ENE) 02:00:03 437.445
ITUPSAT 1 02 Apr 02:01:23 02:06:10 68° 258° (WSW) 02:10:58 437.325
RS-15 02 Apr 02:05:04 02:13:51 25° 38° (NE) 02:23:19 29.354- 29.394
SO-50 02 Apr 02:05:08 02:07:52 15° 46° (NE) 02:10:46 436.795
Oscar 19 02 Apr 02:14:53 02:20:03 70° 101° (E) 02:25:14 437.125/150
STARS 02 Apr 02:16:46 02:19:38 18° 70° (ENE) 02:22:41 437.465
VERMONT LUNAR 02 Apr 02:36:20 02:39:04 23° 146° (SE) 02:41:49 437.305
AIST 1 02 Apr 02:45:51 02:46:58 11° 87° (E) 02:48:24
SWISSCUBE 02 Apr 02:49:04 02:52:31 19° 267° (W) 02:55:48 437.505
BEESAT 02 Apr 02:51:13 02:54:43 19° 266° (W) 02:58:04 436.000
Gurwin Techsat 1B 02 Apr 03:02:39 03:07:47 49° 99° (E) 03:12:56 435.225
O/OREOS (USA 219) 02 Apr 03:15:39 03:20:11 68° 108° (ESE) 03:24:46 437.305
ITAMSAT 1 02 Apr 03:29:25 03:34:36 71° 284° (WNW) 03:39:43 435.822/435.867
KKS-1 02 Apr 03:29:28 03:33:36 37° 262° (W) 03:37:42 437.445
AO-7 02 Apr 03:35:31 03:40:40 19° 92° (E) 03:46:20 29.400- 29.500
JAS-2 02 Apr 03:41:45 03:46:06 17° 87° (E) 03:50:36 435.910
SO-50 02 Apr 03:44:02 03:48:58 67° 243° (WSW) 03:53:48 436.795
PHONESAT 2.4 02 Apr 03:50:37 03:53:54 38° 148° (SSE) 03:57:13 2401.200-2431.200
STARS 02 Apr 03:51:57 03:55:54 32° 262° (W) 03:59:50 437.465
Oscar 19 02 Apr 03:56:47 03:58:54 12° 295° (WNW) 04:00:42 437.125/150
MOZHAYETS 4 02 Apr 03:58:04 04:01:23 20° 70° (ENE) 04:04:51
HORYU 2 02 Apr 04:01:55 04:06:12 42° 99° (E) 04:10:29 437.375
VERMONT LUNAR 02 Apr 04:13:17 04:16:35 57° 339° (NNW) 04:19:53 437.305
RS-15 02 Apr 04:16:31 04:28:12 87° 62° (ENE) 04:40:21 29.354- 29.394
AIST 1 02 Apr 04:20:00 04:24:15 47° 280° (W) 04:28:30
ISS 02 Apr 04:37:17 04:40:29 67° 42° (NE) 04:43:41 145.825
AUBIESAT-1 02 Apr 04:39:15 04:42:20 21° 64° (ENE) 04:45:44 437.475
Gurwin Techsat 1B 02 Apr 04:43:53 04:47:26 18° 293° (WNW) 04:50:45 435.225
O/OREOS (USA 219) 02 Apr 04:59:06 05:00:12 11° 305° (NW) 05:01:00 437.305
M-CUBED/EXP-1 PRIME 02 Apr 05:06:23 05:10:18 50° 70° (ENE) 05:14:35 437.505
JAS-2 02 Apr 05:24:30 05:32:04 73° 286° (WNW) 05:38:49 435.910
AO-7 02 Apr 05:26:02 05:34:20 76° 289° (WNW) 05:42:36 29.400- 29.500
PHONESAT 2.4 02 Apr 05:28:49 05:32:13 44° 343° (NNW) 05:35:37 2401.200-2431.200
MOZHAYETS 4 02 Apr 05:34:17 05:38:26 32° 264° (W) 05:42:34
HORYU 2 02 Apr 05:39:50 05:42:32 15° 292° (WNW) 05:45:04 437.375
VERMONT LUNAR 02 Apr 05:51:47 05:54:38 25° 355° (N) 05:57:30 437.305
CUBESAT XI-V 02 Apr 05:56:11 06:00:09 28° 72° (ENE) 06:04:12 437.345
GONETS M04 02 Apr 06:02:33 06:10:57 47° 77° (ENE) 06:19:25
AUBIESAT-1 02 Apr 06:13:30 06:17:01 28° 261° (W) 06:20:44 437.475
CUTE-I 02 Apr 06:21:56 06:26:14 25° 95° (E) 06:30:37 437.470
Cubesat XI-IV 02 Apr 06:23:21 06:27:44 27° 95° (E) 06:32:12 437.490
RS-15 02 Apr 06:31:29 06:39:40 21° 256° (WSW) 06:47:11 29.354- 29.394
PRISM 02 Apr 06:33:48 06:37:55 59° 75° (ENE) 06:42:05 437.425
M-CUBED/EXP-1 PRIME 02 Apr 06:44:24 06:45:41 11° 267° (W) 06:46:42 437.505
STRAND 1 02 Apr 06:46:12 06:51:11 54° 74° (ENE) 06:56:13 437.568
DANDE 02 Apr 06:49:26 06:52:35 17° 77° (ENE) 06:56:33 436.750
PHONESAT 2.4 02 Apr 07:08:00 07:11:02 26° 360° (N) 07:14:04 2401.200-2431.200
JAS-2 02 Apr 07:13:02 07:15:50 12° 302° (WNW) 07:18:02 435.910
CUSAT 1 02 Apr 07:15:11 07:19:59 44° 80° (E) 07:26:17 437.405
AO-7 02 Apr 07:21:51 07:26:00 14° 305° (NW) 07:29:37 29.400- 29.500
VERMONT LUNAR 02 Apr 07:29:47 07:32:50 32° 12° (NNE) 07:35:54 437.305
CUBESAT XI-V 02 Apr 07:33:46 07:37:35 23° 266° (W) 07:41:17 437.345
GONETS M04 02 Apr 07:59:56 08:07:33 32° 273° (W) 08:14:55
CUTE-I 02 Apr 08:01:37 08:06:21 33° 289° (WNW) 08:10:59 437.470
Cubesat XI-IV 02 Apr 08:03:10 08:07:51 31° 290° (WNW) 08:12:26 437.490
STRAND 1 02 Apr 08:27:56 08:30:47 14° 269° (W) 08:33:21 437.568
HO-68 02 Apr 08:29:13 08:34:18 21° 93° (E) 08:39:42 435.675
BEESAT 2 02 Apr 08:29:14 08:32:19 21° 111° (ESE) 08:35:31 435.950
DANDE 02 Apr 08:31:09 08:35:47 45° 263° (W) 08:41:51 436.750
PHONESAT 2.4 02 Apr 08:46:28 08:49:50 42° 16° (NNE) 08:53:13 2401.200-2431.200
CUSAT 1 02 Apr 08:58:48 09:02:48 21° 265° (W) 09:07:16 437.405
BEESAT 3 02 Apr 09:00:02 09:04:03 62° 116° (ESE) 09:08:07 437.485
CANX-2 02 Apr 09:06:38 09:10:37 37° 97° (E) 09:14:38 2200.000
VERMONT LUNAR 02 Apr 09:07:21 09:10:40 65° 208° (SSW) 09:13:59 437.305
DOVE 4 02 Apr 09:11:34 09:15:35 32° 97° (E) 09:19:51 437.250
BRITE-PL 02 Apr 09:18:52 09:23:12 85° 282° (WNW) 09:27:48 437.365/2234.400
CUTE 1.7 + AOD 2 02 Apr 09:19:45 09:23:56 48° 99° (E) 09:28:06 437.475
AAUSAT CUBESAT 2 02 Apr 09:27:42 09:31:30 33° 97° (E) 09:35:20 437.432
ANTELSAT 02 Apr 09:39:09 09:41:00 13° 68° (ENE) 09:43:05 437.575/2403.000
CUBEBUG 2 02 Apr 09:39:54 09:42:49 17° 93° (E) 09:45:59 437.445
SEEDS 02 Apr 09:42:22 09:46:40 77° 101° (E) 09:50:56 437.485
GOMX 1 02 Apr 09:43:19 09:47:43 71° 283° (WNW) 09:52:23 467.674
CINEMA 3 02 Apr 09:55:55 10:00:21 52° 100° (E) 10:05:00 145.822/145.860
COMPASS 1 02 Apr 09:58:06 10:02:23 85° 283° (WNW) 10:06:37 437.405
UKube-1 02 Apr 10:00:30 10:01:28 11° 91° (E) 10:02:43 .
AIST 2 02 Apr 10:05:33 10:09:47 89° 299° (WNW) 10:14:06 435.215
BEESAT 2 02 Apr 10:06:47 10:10:20 27° 306° (NW) 10:13:53 435.950
DX 1 02 Apr 10:14:54 10:17:51 18° 94° (E) 10:20:56 434.975-435.025
